Find Starlink 4032

NORAD ID: 52688 Int'l Des: 2022-053 Owner: SPXS Country: US Constellation: starlink operational
LEOCIRCULAR

实时位置

正在加载3D地球...

关于 Starlink 4032

正在加载描述...

即将过境

Passes for default location (London). Set your location on the main map for personalized predictions.

高度历史

Loading altitude history...

两行轨道根数

1 52688U 22053AJ 26129.99364150 -.00000057 00000-0 14502-4 0 9997
2 52688 53.2166 228.8000 0001110 88.4142 271.6978 15.08837203220375
Epoch: May 9, 2026 • Age: 10 hours

当前状态

高度 540.1 km
速度 7.59 km/s
星下点 4.26°N, 23.12°E
发射日期 May 18, 2022
运行时间 3.9 years
类型 internet

技术详情

分类 Payload
质量 297.00 kg
干质量 275.00 kg
总质量 297.00 kg
长度 0.20 m
直径 2.80 m
跨度 9.00 m
形状 Box + pan
制造商 SPXS
平台类型 Starlink
阶段状态 In Orbit
所有者/国家 SPXS/US

Most Searched